Location: Go�ngahuizen
(53.0821°N, 5.8849°E)
Time: 23:40:14
(UTC+00:00)

Cosmos 1954 Rocket - Pass Details

Date: 09 April 2020
Orbit: 752 x 781 km, 74.1° (Epoch: 29 May)

Event Time Altitude Azimuth Distance (km) Brightness Sun altitude
Rises 19:29:25 0° 183° (S) 3,226 7.0 -9.6°
Reaches altitude 10° 19:31:52 10° 177° (S) 2,299 6.2 -10.0°
Maximum altitude 19:36:48 44° 106° (ESE) 1,043 4.3 -10.6°
Drops below altitude 10° 19:41:43 10° 36° (NE) 2,298 6.4 -11.3°
Sets 19:44:10 0° 30° (NNE) 3,225 7.3 -11.6°
